User: anonymous   Login
Location: Kelshall
(52.0000°N, 0.0500°W)
Time: 21:50:23
(UTC+00:00)
Language:

ATLAS CENTAUR R/B - Orbit

View from above orbital plane
View from above orbital plane
View from above satellite
View from above satellite

Ground track
Ground track

The orbit data is extracted from the following two-line orbital elements,

1 38770U 12048N   21128.03656950 0.00000600  00000-0  40440-4 0    03
2 38770  64.6570 216.9545 0143332  26.6453 333.3547 14.98320101    06
Epoch (UTC): 08 May 2021 00:52:39
Eccentricity: 0.0143332
inclination: 64.6570°
perigee height: 472 km
apogee height: 672 km
right ascension of ascending node: 216.9545°
argument of perigee: 26.6453°
revolutions per day: 14.98320101
mean anomaly at epoch: 333.3547°
orbit number at epoch: 0

The dashed part of the orbit path shows where the satellite is in the earth's shadow,  

DLR